星链-37923(STARLINK-37923)

导读

STARLINK-37923(NORAD编号69949)是美国SpaceX公司星链低轨通信星座的成员卫星,归属星链第二阶段组网批次。该卫星搭载升级型星间激光通信终端,单星通信容量较前代提升20%,端到端传输延迟可低至30ms以内,适配航空、海事等移动场景的高速通信需求。 作为低轨通信卫星,其部署于约550公里高度的近地轨道,轨道倾角53°,与星链星座53°倾角壳层组网规划匹配,可服务全球广域低延迟互联网覆盖需求,是SpaceX推进全球卫星互联网组网的现役节点之一。

基本信息
目录编号:
69949
目录名称:
STARLINK-37923
国际标识:
2026-157G
轨道中心:
EARTH
卫星名称:
星链-37923
卫星全名:
星链-37923(STARLINK-37923)
卫星状态:
在轨 (已飞行57 天)
发射日期:
2026-07-09 UTC
国别 :
美国 (US)
星等 :
--
轨道信息
数据来源 国际轨道数据
星历时间: 2026-09-04T04:00:02+0800
8小时前
查看轨道信息
半长轴: 6840.917km
偏心率: 0.0001326
轨道倾角: 53.161°
近地点辐角 84.048°
升交点赤经 51.948°
平近点角 142.868°
近地点: 461.872km
远地点: 463.688km
周期: 93.849分钟
每日圈数: 15.343745
详细信息
固有亮度:
5
最大亮度:
2.5
卫星平台:
Starlink V1.0
覆盖范围:
全球
运营商:
太空探索技术公司
运营商所在国:
美国
制造商(研发单位):
太空探索技术公司
制造商所在国:
美国
使用方式:
暂无
卫星简介
Starlink 计划是 SpaceX 推出的全球卫星互联网项目,通过发射低轨道卫星,为全球尤其是偏远地区提供高速、低延迟的互联网服务。自 2019 年起,Starlink 已部署数千颗卫星,旨在缩小全球数字鸿沟,推动互联网普及。该项目还为军事、航空等行业提供通信支持,带来广泛经济效益。
2D轨道图
3D轨道图
轨道高度分析图
轨道倾角分析图
轨道综合分析图
查看轨道综合分析图